Location: Unspecified
(0.0000°N, 0.0000°E)
Time: 05:28:32
(UTC+00:00)

Vanguard 2 - Visible Passes

Search period start: 21 May 2026 00:00
Search period end: 31 May 2026 00:00
Orbit: 553 x 2895 km, 32.9° (Epoch: 20 May)

Date Brightness Start Highest point End Pass type
(mag) Time Alt. Az. Time Alt. Az. Time Alt. Az.
21 May 11.7 01:14:28 12° NW 01:22:38 18° N 01:33:02 10° NNE visible
21 May 11.9 03:30:56 10° NNW 03:40:31 17° N 03:49:07 10° NE visible
21 May 9.1 18:51:30 10° SSW 18:57:35 37° SE 19:06:24 12° ENE visible
21 May 9.5 20:58:14 10° WSW 21:06:47 63° NNW 21:07:35 62° NNW visible
21 May 11.2 23:22:19 26° N 23:22:19 26° N 23:32:35 10° NNE visible
22 May 11.8 01:26:48 10° NW 01:35:51 16° N 01:45:19 10° NNE visible
22 May 11.8 03:42:55 10° NNW 03:53:37 19° NNE 04:02:57 10° NE visible
22 May 8.7 19:02:46 10° SW 19:09:07 52° SE 19:19:37 10° ENE visible
22 May 9.9 21:10:20 10° WSW 21:18:51 49° NNW 21:32:29 10° NE visible
22 May 11.3 23:22:47 10° WNW 23:32:11 23° NNW 23:43:58 10° NNE visible
23 May 11.9 01:40:22 10° NNW 01:49:09 16° N 01:58:09 10° NNE visible
23 May 11.7 03:54:35 10° NNW 04:06:34 22° NNE 04:16:40 10° ENE visible
23 May 8.5 19:14:14 10° SW 19:20:43 72° SE 19:31:46 10° ENE visible
23 May 10.3 21:22:41 10° W 21:31:02 38° NNW 21:43:52 10° NE visible
23 May 11.5 23:36:22 10° NW 23:45:03 19° NNW 23:55:29 10° NNE visible
24 May 11.9 01:53:24 10° NNW 02:02:28 16° N 02:11:35 10° NE visible
24 May 11.6 04:06:04 10° NNW 04:19:19 26° NNE 04:30:08 10° ENE visible
24 May 8.6 19:25:54 10° WSW 19:32:25 84° NW 19:43:39 10° NE visible
24 May 10.6 21:35:18 10° W 21:43:22 30° NNW 21:55:09 10° NNE visible
24 May 11.6 23:50:09 10° NW 23:58:04 16° N 00:07:13 10° NNE visible
25 May 11.9 02:05:51 10° NNW 02:15:43 17° N 02:25:27 10° NE visible
25 May 11.4 04:17:27 10° NNW 04:31:55 32° NNE 04:43:16 10° E visible
25 May 9.0 19:37:45 10° WSW 19:44:17 62° NNW 19:55:19 10° NE visible
25 May 10.9 21:48:14 10° WNW 21:55:51 24° NNW 22:06:21 10° NNE visible
26 May 11.8 00:03:55 10° NNW 00:11:12 15° N 00:19:24 10° NNE visible
26 May 11.8 02:17:50 10° NNW 02:28:50 19° NNE 02:39:29 10° NE visible
26 May 11.2 04:28:48 10° NW 04:44:19 39° NNE 04:56:06 10° E visible
26 May 9.6 19:49:51 10° W 19:56:17 45° NNW 20:06:47 10° NE visible
26 May 11.2 22:01:32 10° NW 22:08:29 19° NNW 22:17:31 10° NNE visible
27 May 11.8 00:17:22 10° NNW 00:24:26 14° N 00:32:13 10° NNE visible
27 May 11.7 02:29:30 10° NNW 02:41:46 22° NNE 02:53:24 10° ENE visible
27 May 10.9 04:40:12 10° NW 04:56:34 47° NNE 05:08:39 10° E visible
27 May 10.1 20:02:11 10° W 20:08:26 33° NNW 20:18:05 10° NE visible
27 May 11.4 22:15:11 10° NW 22:21:16 16° N 22:28:43 10° NNE visible
28 May 11.8 00:30:15 10° NNW 00:37:41 14° N 00:45:47 10° NE visible
28 May 11.6 02:40:59 10° NNW 02:54:30 27° NNE 03:07:02 10° ENE visible
28 May 10.6 04:51:38 10° NW 05:08:40 58° NNE 05:20:56 10° ESE visible
28 May 10.5 20:14:50 10° WNW 20:20:43 25° NNW 20:29:13 10° NNE visible
28 May 11.6 22:29:10 10° NNW 22:34:10 13° N 22:39:59 10° NNE visible
29 May 11.8 00:42:31 10° NNW 00:50:52 16° NNE 00:59:54 10° NE visible
29 May 11.4 02:52:22 10° NNW 03:07:03 32° NNE 03:20:21 10° E visible
29 May 10.4 05:03:10 10° NW 05:20:38 71° NE 05:32:59 10° ESE visible
29 May 8.6 18:17:37 10° WSW 18:22:36 59° NNW 18:30:35 10° NE visible
29 May 10.9 20:27:53 10° WNW 20:33:07 19° NNW 20:40:09 10° NNE visible
29 May 11.7 22:43:17 10° NNW 22:47:12 12° N 22:51:33 10° NNE visible
30 May 11.8 00:54:20 10° NNW 01:03:54 18° NNE 01:14:14 10° NE visible
30 May 11.2 03:03:43 10° NW 03:19:24 39° NNE 03:33:20 10° E visible
30 May 10.2 05:14:52 10° NW 05:32:28 86° NE 05:44:51 10° ESE visible
30 May 9.4 18:29:41 10° W 18:34:33 39° NNW 18:42:00 10° NE visible
30 May 11.1 20:41:27 10° NW 20:45:40 14° NNW 20:50:50 10° NNE visible
30 May 11.7 22:57:00 10° N 23:00:18 11° N 23:03:53 10° NNE visible
